| time (UTC) | temp F | wind direction | speed knots | gust knots | rain 1hr in | rain 24hr in | rain mn in | humidity % | barometer mb |
| 20260507203101 | 59 | 159 | 2.6 | 8.7 | 0.00 | 0.06 | 0.02 | 61 | 1007.9 |
| 20260507202601 | 59 | 275 | 2.6 | 7.8 | 0.00 | 0.06 | 0.02 | 61 | 1008.0 |
| 20260507202102 | 59 | 199 | 1.7 | 7.8 | 0.00 | 0.06 | 0.02 | 66 | 1008.1 |
| 20260507201620 | 59 | 126 | 0.9 | 8.7 | 0.00 | 0.06 | 0.02 | 61 | 1008.0 |
| 20260507201057 | 58 | 142 | 3.5 | 8.7 | 0.00 | 0.06 | 0.02 | 60 | 1008.0 |
| 20260507200600 | 58 | 196 | 3.5 | 7.8 | 0.00 | 0.06 | 0.02 | 65 | 1008.0 |
| 20260507200109 | 59 | 144 | 2.6 | 7.8 | 0.00 | 0.06 | 0.02 | 61 | 1008.1 |
| 20260507195558 | 59 | 216 | 2.6 | 7.8 | 0.00 | 0.06 | 0.02 | 65 | 1008.1 |
| 20260507195059 | 58 | 123 | 1.7 | 6.1 | 0.00 | 0.06 | 0.02 | 66 | 1008.2 |
| 20260507194558 | 58 | 109 | 0.9 | 7.0 | 0.00 | 0.06 | 0.02 | 63 | 1008.2 |
| 20260507194059 | 58 | 163 | 1.7 | 8.7 | 0.00 | 0.06 | 0.02 | 65 | 1008.3 |
| 20260507193604 | 57 | 90 | 2.6 | 8.7 | 0.00 | 0.06 | 0.02 | 67 | 1008.3 |
| 20260507193101 | 57 | 122 | 3.5 | 7.8 | 0.00 | 0.06 | 0.02 | 64 | 1008.5 |
| 20260507192603 | 58 | 111 | 1.7 | 3.5 | 0.00 | 0.06 | 0.02 | 58 | 1008.3 |
| 20260507192059 | 58 | 90 | 0.9 | 2.6 | 0.00 | 0.06 | 0.02 | 57 | 1008.4 |
| 20260507191600 | 58 | 0 | 0.0 | 3.5 | 0.00 | 0.06 | 0.02 | 58 | 1008.5 |
| 20260507191100 | 59 | 46 | 0.9 | 5.2 | 0.00 | 0.06 | 0.02 | 52 | 1008.6 |
| 20260507190559 | 60 | 355 | 0.9 | 5.2 | 0.00 | 0.06 | 0.02 | 51 | 1008.6 |
| 20260507190058 | 60 | 103 | 1.7 | 5.2 | 0.00 | 0.06 | 0.02 | 51 | 1008.8 |
| 20260507185559 | 62 | 17 | 2.6 | 5.2 | 0.00 | 0.06 | 0.02 | 48 | 1008.9 |
| 20260507185100 | 63 | 73 | 1.7 | 6.1 | 0.00 | 0.06 | 0.02 | 45 | 1008.9 |
| 20260507184559 | 63 | 360 | 1.7 | 6.1 | 0.00 | 0.06 | 0.02 | 48 | 1008.9 |
| 20260507184059 | 63 | 301 | 2.6 | 7.0 | 0.00 | 0.06 | 0.02 | 51 | 1008.9 |
| 20260507183558 | 62 | 254 | 2.6 | 7.0 | 0.00 | 0.06 | 0.02 | 52 | 1008.9 |
| 20260507183100 | 63 | 282 | 1.7 | 7.0 | 0.00 | 0.06 | 0.02 | 52 | 1009.0 |
| 20260507182559 | 62 | 348 | 0.9 | 5.2 | 0.00 | 0.06 | 0.02 | 51 | 1009.0 |
| 20260507182100 | 62 | 351 | 1.7 | 5.2 | 0.00 | 0.06 | 0.02 | 53 | 1009.1 |
| 20260507181606 | 62 | 87 | 0.9 | 6.1 | 0.00 | 0.06 | 0.02 | 54 | 1009.1 |
| 20260507181100 | 62 | 311 | 1.7 | 6.1 | 0.00 | 0.06 | 0.02 | 48 | 1009.2 |
| 20260507180600 | 62 | 141 | 1.7 | 6.1 | 0.00 | 0.06 | 0.02 | 52 | 1009.2 |
| 20260507180059 | 62 | 329 | 1.7 | 6.1 | 0.00 | 0.06 | 0.02 | 51 | 1009.3 |
| 20260507175600 | 60 | 283 | 2.6 | 6.1 | 0.00 | 0.06 | 0.02 | 55 | 1009.4 |
| 20260507175101 | 59 | 0 | 1.7 | 5.2 | 0.00 | 0.06 | 0.02 | 48 | 1009.5 |
| 20260507174603 | 60 | 13 | 1.7 | 7.0 | 0.00 | 0.06 | 0.02 | 50 | 1009.5 |
| 20260507174059 | 61 | 26 | 2.6 | 7.0 | 0.00 | 0.06 | 0.02 | 51 | 1009.5 |
| 20260507173559 | 60 | 56 | 1.7 | 5.2 | 0.00 | 0.06 | 0.02 | 55 | 1009.5 |
| 20260507173101 | 60 | 313 | 1.7 | 7.0 | 0.00 | 0.06 | 0.02 | 54 | 1009.5 |
| 20260507172603 | 60 | 346 | 1.7 | 7.0 | 0.00 | 0.06 | 0.02 | 54 | 1009.7 |
| 20260507172058 | 58 | 66 | 1.7 | 7.0 | 0.00 | 0.06 | 0.02 | 62 | 1009.7 |
| 20260507171605 | 58 | 272 | 1.7 | 4.3 | 0.00 | 0.06 | 0.02 | 53 | 1009.8 |
| 20260507171059 | 58 | 71 | 1.7 | 7.0 | 0.00 | 0.06 | 0.02 | 55 | 1010.0 |
| 20260507170602 | 56 | 196 | 1.7 | 7.8 | 0.00 | 0.06 | 0.02 | 59 | 1010.1 |
| 20260507170059 | 56 | 0 | 4.3 | 7.8 | 0.00 | 0.06 | 0.02 | 54 | 1010.3 |
| 20260507165559 | 58 | 96 | 1.7 | 5.2 | 0.00 | 0.06 | 0.02 | 59 | 1010.3 |
| 20260507165101 | 58 | 134 | 0.9 | 6.1 | 0.00 | 0.06 | 0.02 | 53 | 1010.3 |
| 20260507164603 | 56 | 348 | 0.0 | 6.1 | 0.00 | 0.06 | 0.02 | 56 | 1010.4 |
| 20260507164100 | 56 | 92 | 1.7 | 7.0 | 0.00 | 0.06 | 0.02 | 65 | 1010.5 |
| 20260507163559 | 56 | 28 | 1.7 | 7.0 | 0.00 | 0.06 | 0.02 | 58 | 1010.5 |
| 20260507163059 | 55 | 107 | 2.6 | 7.0 | 0.00 | 0.06 | 0.02 | 61 | 1010.7 |
| 20260507162601 | 55 | 96 | 0.0 | 3.5 | 0.00 | 0.06 | 0.02 | 58 | 1010.8 |
| 20260507162104 | 55 | 317 | 0.9 | 4.3 | 0.00 | 0.06 | 0.02 | 61 | 1010.8 |
| 20260507161611 | 54 | 286 | 1.7 | 4.3 | 0.00 | 0.06 | 0.02 | 57 | 1010.8 |
| 20260507161101 | 54 | 76 | 0.9 | 4.3 | 0.00 | 0.06 | 0.02 | 60 | 1010.9 |
| 20260507160601 | 54 | 0 | 1.7 | 6.1 | 0.00 | 0.06 | 0.02 | 56 | 1011.1 |
| 20260507160116 | 54 | 347 | 0.9 | 6.1 | 0.00 | 0.06 | 0.02 | 64 | 1010.9 |
| 20260507155604 | 53 | 133 | 0.9 | 3.5 | 0.00 | 0.06 | 0.02 | 60 | 1011.1 |
| 20260507155100 | 53 | 32 | 0.9 | 3.5 | 0.00 | 0.06 | 0.02 | 62 | 1011.0 |
| 20260507154601 | 53 | 25 | 1.7 | 4.3 | 0.00 | 0.06 | 0.02 | 65 | 1011.2 |
| 20260507154101 | 52 | 24 | 1.7 | 4.3 | 0.00 | 0.06 | 0.02 | 62 | 1011.0 |
| 20260507153600 | 52 | 338 | 1.7 | 4.3 | 0.00 | 0.06 | 0.02 | 62 | 1011.2 |
| 20260507153114 | 52 | 13 | 1.7 | 4.3 | 0.00 | 0.06 | 0.02 | 64 | 1011.2 |
| 20260507152602 | 52 | 326 | 1.7 | 4.3 | 0.00 | 0.06 | 0.02 | 62 | 1011.3 |
| 20260507152059 | 52 | 49 | 1.7 | 3.5 | 0.00 | 0.06 | 0.02 | 64 | 1011.3 |
| 20260507151602 | 52 | 14 | 1.7 | 3.5 | 0.00 | 0.06 | 0.02 | 66 | 1011.4 |
| 20260507151101 | 52 | 327 | 0.9 | 2.6 | 0.00 | 0.06 | 0.02 | 62 | 1011.5 |
| 20260507150602 | 52 | 355 | 0.9 | 4.3 | 0.00 | 0.06 | 0.02 | 66 | 1011.5 |
| 20260507150110 | 52 | 5 | 0.9 | 4.3 | 0.00 | 0.06 | 0.02 | 64 | 1011.6 |
| 20260507145601 | 52 | 318 | 1.7 | 4.3 | 0.00 | 0.10 | 0.02 | 63 | 1011.5 |
| 20260507145104 | 52 | 360 | 0.9 | 3.5 | 0.00 | 0.10 | 0.02 | 71 | 1011.7 |
| 20260507144601 | 51 | 296 | 0.9 | 3.5 | 0.00 | 0.10 | 0.02 | 68 | 1011.7 |
| 20260507144101 | 51 | 0 | 0.9 | 3.5 | 0.00 | 0.10 | 0.02 | 67 | 1011.8 |
| 20260507143600 | 50 | 0 | 0.9 | 2.6 | 0.00 | 0.10 | 0.02 | 69 | 1011.8 |
| 20260507143102 | 50 | 0 | 0.9 | 2.6 | 0.00 | 0.10 | 0.02 | 68 | 1011.9 |
| 20260507142600 | 50 | 0 | 0.0 | 3.5 | 0.00 | 0.10 | 0.02 | 68 | 1011.8 |
| 20260507142102 | 50 | 35 | 0.9 | 3.5 | 0.00 | 0.10 | 0.02 | 67 | 1011.9 |
| 20260507141603 | 50 | 21 | 0.9 | 3.5 | 0.00 | 0.10 | 0.02 | 65 | 1011.7 |
| 20260507141101 | 49 | 44 | 0.0 | 2.6 | 0.00 | 0.10 | 0.02 | 71 | 1011.8 |
| 20260507140601 | 50 | 19 | 0.0 | 4.3 | 0.00 | 0.10 | 0.02 | 71 | 1012.0 |
| 20260507140100 | 49 | 336 | 0.9 | 4.3 | 0.00 | 0.10 | 0.02 | 66 | 1011.9 |
| 20260507135604 | 49 | 321 | 1.7 | 4.3 | 0.00 | 0.17 | 0.02 | 67 | 1012.0 |
| 20260507135104 | 49 | 24 | 1.7 | 3.5 | 0.00 | 0.17 | 0.02 | 67 | 1012.1 |
| 20260507134616 | 49 | 336 | 1.7 | 3.5 | 0.00 | 0.17 | 0.02 | 68 | 1012.2 |
| 20260507134101 | 49 | 344 | 1.7 | 4.3 | 0.00 | 0.17 | 0.02 | 68 | 1012.2 |
| 20260507133601 | 49 | 355 | 1.7 | 4.3 | 0.00 | 0.17 | 0.02 | 69 | 1012.2 |
| 20260507133100 | 49 | 321 | 0.9 | 2.6 | 0.00 | 0.17 | 0.02 | 71 | 1012.3 |
| 20260507132600 | 49 | 326 | 0.9 | 3.5 | 0.00 | 0.17 | 0.02 | 70 | 1012.3 |
| 20260507132100 | 49 | 314 | 0.9 | 3.5 | 0.00 | 0.17 | 0.02 | 69 | 1012.3 |
| 20260507131601 | 49 | 341 | 0.9 | 3.5 | 0.00 | 0.17 | 0.02 | 69 | 1012.2 |
| 20260507131102 | 49 | 24 | 0.9 | 4.3 | 0.00 | 0.17 | 0.02 | 72 | 1012.2 |
| 20260507130559 | 49 | 327 | 1.7 | 5.2 | 0.00 | 0.17 | 0.02 | 70 | 1012.1 |
| 20260507130110 | 49 | 329 | 1.7 | 5.2 | 0.00 | 0.17 | 0.02 | 71 | 1012.1 |
| 20260507125556 | 49 | 323 | 2.6 | 5.2 | 0.00 | 0.23 | 0.02 | 69 | 1012.1 |
| 20260507125057 | 49 | 334 | 2.6 | 4.3 | 0.00 | 0.23 | 0.02 | 69 | 1012.0 |
| 20260507124621 | 49 | 350 | 2.6 | 4.3 | 0.00 | 0.23 | 0.02 | 69 | 1012.0 |
| 20260507124057 | 49 | 347 | 1.7 | 3.5 | 0.00 | 0.23 | 0.02 | 71 | 1012.1 |
| 20260507123557 | 49 | 327 | 1.7 | 3.5 | 0.00 | 0.23 | 0.02 | 72 | 1012.1 |
| 20260507123109 | 49 | 326 | 0.9 | 2.6 | 0.00 | 0.23 | 0.02 | 73 | 1012.1 |
| 20260507122559 | 49 | 346 | 0.9 | 3.5 | 0.00 | 0.23 | 0.02 | 73 | 1012.2 |
| 20260507122100 | 49 | 327 | 0.9 | 3.5 | 0.00 | 0.23 | 0.02 | 72 | 1012.3 |
| 20260507121604 | 49 | 328 | 1.7 | 3.5 | 0.00 | 0.23 | 0.02 | 73 | 1012.1 |
| 20260507121059 | 49 | 318 | 1.7 | 3.5 | 0.00 | 0.23 | 0.02 | 74 | 1012.0 |
| 20260507120559 | 49 | 346 | 1.7 | 3.5 | 0.00 | 0.23 | 0.02 | 75 | 1012.1 |
| 20260507115600 | 49 | 343 | 1.7 | 5.2 | 0.00 | 0.27 | 0.02 | 75 | 1012.0 |
| 20260507115100 | 49 | 350 | 1.7 | 5.2 | 0.00 | 0.27 | 0.02 | 76 | 1012.0 |
| 20260507114605 | 49 | 340 | 1.7 | 7.0 | 0.00 | 0.27 | 0.02 | 77 | 1012.0 |
| 20260507114056 | 49 | 347 | 1.7 | 7.0 | 0.00 | 0.27 | 0.02 | 77 | 1011.9 |
| 20260507113601 | 50 | 28 | 1.7 | 7.0 | 0.00 | 0.27 | 0.02 | 78 | 1011.7 |
| 20260507113101 | 50 | 342 | 1.7 | 3.5 | 0.00 | 0.27 | 0.02 | 81 | 1011.7 |
| 20260507112556 | 50 | 341 | 1.7 | 3.5 | 0.00 | 0.27 | 0.02 | 80 | 1011.7 |
| 20260507112059 | 50 | 338 | 1.7 | 3.5 | 0.00 | 0.27 | 0.02 | 81 | 1011.6 |
| 20260507111558 | 50 | 13 | 0.9 | 3.5 | 0.00 | 0.27 | 0.02 | 82 | 1011.5 |
| 20260507111102 | 50 | 15 | 1.7 | 3.5 | 0.00 | 0.27 | 0.02 | 82 | 1011.6 |
| 20260507110556 | 50 | 351 | 1.7 | 3.5 | 0.00 | 0.27 | 0.02 | 80 | 1011.4 |
| 20260507110100 | 50 | 341 | 1.7 | 3.5 | 0.00 | 0.27 | 0.02 | 80 | 1011.6 |
| 20260507105600 | 50 | 319 | 1.7 | 3.5 | 0.00 | 0.27 | 0.02 | 79 | 1011.6 |
| 20260507105100 | 50 | 335 | 1.7 | 3.5 | 0.00 | 0.27 | 0.02 | 80 | 1011.5 |
| 20260507104600 | 50 | 340 | 0.9 | 2.6 | 0.00 | 0.27 | 0.02 | 80 | 1011.5 |
| 20260507104102 | 50 | 12 | 0.9 | 2.6 | 0.00 | 0.27 | 0.02 | 80 | 1011.4 |
| 20260507103600 | 50 | 339 | 0.9 | 3.5 | 0.00 | 0.27 | 0.02 | 80 | 1011.4 |
| 20260507103114 | 50 | 343 | 0.9 | 3.5 | 0.00 | 0.27 | 0.02 | 81 | 1011.3 |
| 20260507102559 | 50 | 23 | 1.7 | 3.5 | 0.00 | 0.27 | 0.02 | 80 | 1011.2 |
| 20260507102100 | 50 | 342 | 1.7 | 3.5 | 0.00 | 0.27 | 0.02 | 82 | 1011.3 |
| 20260507101601 | 50 | 346 | 1.7 | 3.5 | 0.00 | 0.27 | 0.02 | 81 | 1011.3 |
| 20260507101056 | 50 | 351 | 0.9 | 2.6 | 0.00 | 0.27 | 0.02 | 81 | 1011.2 |
| 20260507100559 | 50 | 342 | 0.9 | 2.6 | 0.00 | 0.27 | 0.02 | 80 | 1011.1 |
| 20260507100113 | 50 | 340 | 0.9 | 2.6 | 0.00 | 0.27 | 0.02 | 79 | 1011.0 |
| 20260507095603 | 50 | 350 | 1.7 | 2.6 | 0.00 | 0.27 | 0.02 | 79 | 1011.0 |
| 20260507095101 | 50 | 347 | 1.7 | 3.5 | 0.00 | 0.27 | 0.02 | 80 | 1010.9 |
| 20260507094559 | 50 | 345 | 1.7 | 4.3 | 0.00 | 0.27 | 0.02 | 79 | 1010.9 |
| 20260507094101 | 50 | 5 | 1.7 | 4.3 | 0.00 | 0.27 | 0.02 | 79 | 1010.8 |
| 20260507093603 | 50 | 338 | 2.6 | 4.3 | 0.00 | 0.27 | 0.02 | 78 | 1010.9 |
| 20260507093102 | 50 | 315 | 0.9 | 2.6 | 0.00 | 0.27 | 0.02 | 80 | 1011.0 |
| 20260507092601 | 50 | 338 | 1.7 | 2.6 | 0.00 | 0.27 | 0.02 | 80 | 1010.8 |
| 20260507092101 | 50 | 301 | 1.7 | 2.6 | 0.00 | 0.27 | 0.02 | 81 | 1010.8 |
| 20260507091600 | 50 | 329 | 0.9 | 4.3 | 0.00 | 0.27 | 0.02 | 84 | 1010.7 |
| 20260507091101 | 50 | 325 | 0.9 | 4.3 | 0.00 | 0.27 | 0.02 | 82 | 1010.6 |
| 20260507090600 | 50 | 342 | 1.7 | 4.3 | 0.00 | 0.27 | 0.02 | 81 | 1010.4 |
| 20260507090100 | 50 | 340 | 0.9 | 4.3 | 0.00 | 0.27 | 0.02 | 81 | 1010.6 |
| 20260507085600 | 50 | 5 | 0.9 | 4.3 | 0.00 | 0.27 | 0.02 | 80 | 1010.6 |
| 20260507085100 | 50 | 49 | 1.7 | 3.5 | 0.00 | 0.27 | 0.02 | 80 | 1010.6 |
| 20260507084602 | 50 | 351 | 0.9 | 3.5 | 0.00 | 0.27 | 0.02 | 81 | 1010.6 |
| 20260507084100 | 50 | 355 | 0.9 | 3.5 | 0.00 | 0.27 | 0.02 | 82 | 1010.8 |
| 20260507083600 | 50 | 342 | 1.7 | 3.5 | 0.00 | 0.27 | 0.02 | 81 | 1010.7 |
| 20260507083120 | 50 | 335 | 1.7 | 4.3 | 0.00 | 0.27 | 0.02 | 81 | 1010.6 |
| 20260507082602 | 50 | 345 | 1.7 | 4.3 | 0.00 | 0.27 | 0.02 | 81 | 1010.6 |
| 20260507082100 | 50 | 346 | 1.7 | 4.3 | 0.00 | 0.27 | 0.02 | 80 | 1010.7 |
| 20260507081605 | 50 | 334 | 1.7 | 6.1 | 0.00 | 0.27 | 0.02 | 81 | 1010.7 |
| 20260507081101 | 50 | 338 | 1.7 | 6.1 | 0.00 | 0.27 | 0.02 | 82 | 1010.5 |
| 20260507080600 | 50 | 320 | 2.6 | 7.0 | 0.00 | 0.27 | 0.02 | 81 | 1010.6 |
| 20260507075602 | 50 | 327 | 2.6 | 7.0 | 0.00 | 0.27 | 0.02 | 82 | 1010.4 |
| 20260507075101 | 50 | 332 | 2.6 | 5.2 | 0.00 | 0.27 | 0.02 | 82 | 1010.2 |
| 20260507074625 | 50 | 322 | 2.6 | 6.1 | 0.00 | 0.27 | 0.02 | 82 | 1010.0 |
| 20260507074102 | 50 | 342 | 3.5 | 6.1 | 0.00 | 0.27 | 0.02 | 82 | 1009.9 |
| 20260507073601 | 50 | 313 | 2.6 | 4.3 | 0.00 | 0.27 | 0.02 | 83 | 1009.9 |
| 20260507073103 | 50 | 313 | 1.7 | 3.5 | 0.00 | 0.27 | 0.02 | 84 | 1010.0 |
| 20260507072601 | 50 | 322 | 1.7 | 3.5 | 0.00 | 0.27 | 0.02 | 84 | 1010.1 |
| 20260507072101 | 50 | 318 | 1.7 | 4.3 | 0.00 | 0.27 | 0.02 | 84 | 1010.1 |
| 20260507071600 | 50 | 329 | 1.7 | 7.8 | 0.00 | 0.27 | 0.02 | 85 | 1010.0 |
| 20260507071101 | 50 | 313 | 3.5 | 7.8 | 0.00 | 0.27 | 0.02 | 85 | 1009.9 |
| 20260507070601 | 50 | 320 | 3.5 | 7.8 | 0.00 | 0.27 | 0.02 | 86 | 1010.1 |
| 20260507070106 | 50 | 324 | 3.5 | 7.8 | 0.00 | 0.27 | 0.02 | 86 | 1010.1 |
| 20260507065600 | 50 | 327 | 3.5 | 7.0 | 0.00 | 0.27 | 0.02 | 87 | 1010.0 |
| 20260507065100 | 50 | 338 | 3.5 | 7.0 | 0.00 | 0.27 | 0.02 | 87 | 1010.0 |
| 20260507064604 | 50 | 327 | 3.5 | 7.8 | 0.00 | 0.27 | 0.02 | 87 | 1010.1 |
| 20260507064101 | 50 | 309 | 3.5 | 7.8 | 0.00 | 0.27 | 0.02 | 88 | 1010.0 |
| 20260507063601 | 50 | 5 | 2.6 | 7.8 | 0.00 | 0.27 | 0.02 | 89 | 1010.1 |
| 20260507063059 | 50 | 324 | 3.5 | 7.0 | 0.00 | 0.27 | 0.02 | 88 | 1010.1 |
| 20260507062559 | 50 | 330 | 3.5 | 5.2 | 0.00 | 0.27 | 0.02 | 89 | 1010.2 |
| 20260507062056 | 50 | 320 | 2.6 | 5.2 | 0.00 | 0.27 | 0.02 | 89 | 1010.2 |
| 20260507061559 | 51 | 308 | 1.7 | 4.3 | 0.00 | 0.27 | 0.02 | 89 | 1010.3 |
| 20260507061056 | 51 | 305 | 2.6 | 4.3 | 0.01 | 0.27 | 0.02 | 89 | 1010.6 |
| 20260507060559 | 51 | 318 | 2.6 | 5.2 | 0.01 | 0.27 | 0.02 | 90 | 1010.4 |
| 20260507060059 | 51 | 317 | 2.6 | 5.2 | 0.01 | 0.27 | 0.02 | 90 | 1010.3 |
| 20260507055600 | 51 | 331 | 2.6 | 4.3 | 0.01 | 0.27 | 0.02 | 91 | 1010.1 |
| 20260507055056 | 50 | 323 | 2.6 | 4.3 | 0.01 | 0.27 | 0.02 | 91 | 1010.4 |
| 20260507054557 | 51 | 306 | 1.7 | 4.3 | 0.01 | 0.27 | 0.02 | 91 | 1010.3 |
| 20260507054100 | 51 | 321 | 1.7 | 4.3 | 0.01 | 0.27 | 0.02 | 91 | 1010.6 |
| 20260507053600 | 51 | 298 | 2.6 | 4.3 | 0.01 | 0.27 | 0.02 | 90 | 1010.3 |
| 20260507053100 | 51 | 324 | 2.6 | 5.2 | 0.01 | 0.27 | 0.02 | 91 | 1010.4 |
| 20260507052559 | 51 | 323 | 2.6 | 5.2 | 0.01 | 0.27 | 0.02 | 91 | 1010.4 |
| 20260507052058 | 52 | 300 | 3.5 | 5.2 | 0.01 | 0.27 | 0.02 | 90 | 1010.4 |
| 20260507051602 | 52 | 317 | 2.6 | 7.8 | 0.01 | 0.27 | 0.02 | 90 | 1010.4 |
| 20260507051059 | 52 | 316 | 3.5 | 7.8 | 0.00 | 0.26 | 0.01 | 91 | 1010.4 |
| 20260507050559 | 52 | 34 | 3.5 | 7.0 | 0.00 | 0.26 | 0.01 | 92 | 1010.5 |
| 20260507050059 | 53 | 342 | 2.6 | 5.2 | 0.01 | 0.26 | 0.01 | 93 | 1010.4 |
| 20260507045601 | 53 | 340 | 3.5 | 5.2 | 0.01 | 0.26 | 0.01 | 93 | 1010.1 |
| 20260507045056 | 53 | 17 | 0.9 | 3.5 | 0.01 | 0.26 | 0.01 | 93 | 1009.7 |
| 20260507044558 | 53 | 24 | 0.9 | 5.2 | 0.01 | 0.26 | 0.01 | 93 | 1010.0 |
| 20260507044059 | 53 | 343 | 1.7 | 5.2 | 0.01 | 0.26 | 0.01 | 93 | 1010.5 |
| 20260507043600 | 53 | 355 | 1.7 | 3.5 | 0.01 | 0.26 | 0.01 | 93 | 1010.6 |
| 20260507043102 | 54 | 349 | 1.7 | 3.5 | 0.01 | 0.26 | 0.01 | 93 | 1010.8 |
| 20260507042558 | 54 | 295 | 0.9 | 3.5 | 0.01 | 0.26 | 0.01 | 92 | 1010.4 |
| 20260507042100 | 54 | 111 | 0.9 | 3.5 | 0.01 | 0.26 | 0.01 | 91 | 1009.8 |
| 20260507041600 | 54 | 100 | 0.9 | 7.0 | 0.01 | 0.26 | 0.01 | 91 | 1010.1 |
| 20260507041100 | 55 | 336 | 2.6 | 7.0 | 0.01 | 0.26 | 0.01 | 90 | 1010.4 |
| 20260507040602 | 55 | 303 | 0.9 | 5.2 | 0.01 | 0.26 | 0.01 | 89 | 1011.0 |
| 20260507040059 | 55 | 328 | 2.6 | 5.2 | 0.00 | 0.25 | 0.00 | 88 | 1010.6 |
| 20260507035559 | 55 | 22 | 1.7 | 4.3 | 0.00 | 0.25 | 0.25 | 88 | 1010.1 |
| 20260507035102 | 55 | 315 | 1.7 | 3.5 | 0.00 | 0.25 | 0.25 | 89 | 1010.6 |
| 20260507034601 | 56 | 316 | 1.7 | 4.3 | 0.00 | 0.25 | 0.25 | 89 | 1010.0 |
| 20260507034059 | 56 | 329 | 0.0 | 4.3 | 0.00 | 0.25 | 0.25 | 88 | 1009.8 |
| 20260507033556 | 56 | 5 | 0.9 | 3.5 | 0.00 | 0.25 | 0.25 | 87 | 1009.7 |
| 20260507033058 | 56 | 276 | 1.7 | 4.3 | 0.00 | 0.25 | 0.25 | 88 | 1009.7 |
| 20260507032557 | 56 | 331 | 1.7 | 4.3 | 0.00 | 0.25 | 0.25 | 88 | 1009.7 |
| 20260507032056 | 56 | 352 | 2.6 | 4.3 | 0.00 | 0.25 | 0.25 | 89 | 1009.7 |
| 20260507031557 | 56 | 329 | 1.7 | 7.0 | 0.00 | 0.25 | 0.25 | 89 | 1009.7 |
| 20260507031101 | 56 | 322 | 3.5 | 7.8 | 0.00 | 0.25 | 0.25 | 88 | 1009.7 |
| 20260507030559 | 56 | 334 | 4.3 | 8.7 | 0.00 | 0.25 | 0.25 | 88 | 1009.6 |
| 20260507030100 | 56 | 316 | 4.3 | 8.7 | 0.00 | 0.25 | 0.25 | 88 | 1009.9 |
| 20260507025604 | 57 | 324 | 5.2 | 8.7 | 0.00 | 0.25 | 0.25 | 87 | 1010.0 |
| 20260507025101 | 57 | 317 | 3.5 | 8.7 | 0.00 | 0.25 | 0.25 | 87 | 1009.6 |
| 20260507024625 | 57 | 315 | 3.5 | 8.7 | 0.00 | 0.25 | 0.25 | 86 | 1009.4 |
| 20260507024100 | 57 | 312 | 3.5 | 7.0 | 0.00 | 0.25 | 0.25 | 86 | 1009.2 |
| 20260507023604 | 57 | 328 | 3.5 | 7.0 | 0.00 | 0.25 | 0.25 | 86 | 1009.0 |
| 20260507023058 | 57 | 328 | 3.5 | 10.4 | 0.00 | 0.25 | 0.25 | 86 | 1009.0 |
| 20260507022600 | 58 | 340 | 4.3 | 10.4 | 0.00 | 0.25 | 0.25 | 87 | 1009.2 |
| 20260507022100 | 58 | 312 | 4.3 | 7.8 | 0.00 | 0.25 | 0.25 | 87 | 1009.4 |
| 20260507021558 | 58 | 327 | 3.5 | 7.0 | 0.00 | 0.25 | 0.25 | 88 | 1009.2 |
| 20260507021059 | 58 | 317 | 3.5 | 8.7 | 0.00 | 0.25 | 0.25 | 89 | 1009.3 |
| 20260507020601 | 58 | 319 | 4.3 | 8.7 | 0.00 | 0.25 | 0.25 | 89 | 1009.2 |
| 20260507020111 | 58 | 307 | 3.5 | 6.1 | 0.00 | 0.25 | 0.25 | 90 | 1009.1 |
| 20260507015559 | 59 | 286 | 3.5 | 6.1 | 0.00 | 0.25 | 0.25 | 90 | 1009.1 |
| 20260507015059 | 59 | 315 | 3.5 | 6.1 | 0.00 | 0.25 | 0.25 | 91 | 1008.9 |
| 20260507014607 | 59 | 321 | 3.5 | 6.1 | 0.00 | 0.25 | 0.25 | 91 | 1009.2 |
| 20260507014059 | 59 | 309 | 2.6 | 6.1 | 0.00 | 0.25 | 0.25 | 91 | 1009.1 |
| 20260507013556 | 59 | 290 | 1.7 | 3.5 | 0.00 | 0.25 | 0.25 | 91 | 1009.1 |
| 20260507013059 | 59 | 350 | 0.9 | 3.5 | 0.00 | 0.25 | 0.25 | 91 | 1009.0 |
| 20260507012600 | 60 | 340 | 1.7 | 5.2 | 0.00 | 0.25 | 0.25 | 92 | 1008.9 |
| 20260507012100 | 60 | 323 | 1.7 | 7.0 | 0.00 | 0.25 | 0.25 | 92 | 1008.9 |
| 20260507011603 | 60 | 323 | 3.5 | 7.0 | 0.00 | 0.25 | 0.25 | 92 | 1009.2 |
| 20260507011059 | 60 | 328 | 4.3 | 7.0 | 0.00 | 0.25 | 0.25 | 92 | 1009.5 |
| 20260507010600 | 60 | 311 | 2.6 | 7.0 | 0.00 | 0.25 | 0.25 | 93 | 1009.5 |
| 20260507010058 | 60 | 301 | 2.6 | 4.3 | 0.00 | 0.25 | 0.25 | 93 | 1009.5 |
| 20260507005600 | 60 | 320 | 2.6 | 4.3 | 0.00 | 0.25 | 0.25 | 93 | 1009.4 |
| 20260507005059 | 61 | 311 | 1.7 | 4.3 | 0.00 | 0.25 | 0.25 | 94 | 1009.3 |
| 20260507004557 | 61 | 305 | 2.6 | 4.3 | 0.00 | 0.25 | 0.25 | 94 | 1009.1 |
| 20260507004101 | 61 | 319 | 2.6 | 4.3 | 0.01 | 0.25 | 0.25 | 94 | 1009.2 |
| 20260507003600 | 61 | 304 | 1.7 | 3.5 | 0.01 | 0.25 | 0.25 | 94 | 1009.1 |
| 20260507003059 | 62 | 315 | 0.9 | 2.6 | 0.02 | 0.25 | 0.25 | 95 | 1008.9 |
| 20260507002556 | 62 | 277 | 0.0 | 4.3 | 0.02 | 0.25 | 0.25 | 94 | 1009.2 |
| 20260507002102 | 62 | 0 | 1.7 | 5.2 | 0.02 | 0.25 | 0.25 | 94 | 1009.3 |
| 20260507001558 | 62 | 311 | 1.7 | 5.2 | 0.03 | 0.25 | 0.25 | 94 | 1009.1 |
| 20260507001151 | 62 | 313 | 1.7 | 4.3 | 0.04 | 0.25 | 0.25 | 94 | 1009.0 |
| 20260507000601 | 62 | 278 | 1.7 | 3.5 | 0.04 | 0.25 | 0.25 | 94 | 1008.9 |
| 20260506235601 | 62 | 279 | 0.9 | 3.5 | 0.04 | 0.25 | 0.25 | 93 | 1008.6 |
| 20260506235100 | 62 | 262 | 1.7 | 3.5 | 0.04 | 0.25 | 0.25 | 94 | 1008.7 |
| 20260506234612 | 62 | 279 | 0.9 | 4.3 | 0.03 | 0.24 | 0.24 | 93 | 1008.5 |
| 20260506234101 | 62 | 229 | 0.9 | 4.3 | 0.03 | 0.24 | 0.24 | 93 | 1008.4 |
| 20260506233605 | 62 | 300 | 2.6 | 4.3 | 0.03 | 0.24 | 0.24 | 93 | 1008.6 |
| 20260506233102 | 62 | 304 | 1.7 | 4.3 | 0.02 | 0.23 | 0.23 | 93 | 1008.6 |
| 20260506232601 | 62 | 284 | 0.9 | 2.6 | 0.02 | 0.23 | 0.23 | 92 | 1008.4 |
| 20260506232102 | 63 | 287 | 0.9 | 1.7 | 0.02 | 0.23 | 0.23 | 91 | 1008.3 |
| 20260506231601 | 63 | 267 | 0.0 | 1.7 | 0.01 | 0.22 | 0.22 | 91 | 1008.1 |
| 20260506231104 | 64 | 267 | 0.0 | 1.7 | 0.00 | 0.21 | 0.21 | 90 | 1008.2 |
| 20260506230601 | 64 | 0 | 0.0 | 2.6 | 0.00 | 0.21 | 0.21 | 88 | 1008.0 |
| 20260506225604 | 65 | 0 | 0.0 | 4.3 | 0.00 | 0.21 | 0.21 | 86 | 1007.8 |
| 20260506225104 | 65 | 185 | 0.9 | 4.3 | 0.00 | 0.21 | 0.21 | 86 | 1007.9 |
| 20260506224600 | 65 | 215 | 0.9 | 7.0 | 0.00 | 0.21 | 0.21 | 86 | 1007.9 |
| 20260506224100 | 65 | 202 | 1.7 | 7.0 | 0.00 | 0.21 | 0.21 | 85 | 1007.8 |
| 20260506223600 | 65 | 136 | 1.7 | 7.8 | 0.00 | 0.21 | 0.21 | 85 | 1007.9 |
| 20260506223100 | 65 | 178 | 3.5 | 7.8 | 0.00 | 0.21 | 0.21 | 84 | 1007.8 |
| 20260506222603 | 65 | 220 | 1.7 | 6.1 | 0.00 | 0.21 | 0.21 | 84 | 1007.7 |
| 20260506222101 | 65 | 169 | 0.9 | 4.3 | 0.00 | 0.21 | 0.21 | 84 | 1007.7 |
| 20260506221603 | 65 | 79 | 0.9 | 6.1 | 0.00 | 0.21 | 0.21 | 85 | 1007.8 |
| 20260506221101 | 65 | 155 | 2.6 | 6.1 | 0.00 | 0.21 | 0.21 | 85 | 1007.8 |
| 20260506220601 | 66 | 111 | 1.7 | 5.2 | 0.00 | 0.21 | 0.21 | 85 | 1007.7 |
| 20260506220059 | 66 | 175 | 0.9 | 4.3 | 0.00 | 0.21 | 0.21 | 84 | 1007.8 |
| 20260506215603 | 66 | 187 | 0.9 | 5.2 | 0.00 | 0.21 | 0.21 | 84 | 1007.7 |
| 20260506215101 | 65 | 172 | 1.7 | 5.2 | 0.00 | 0.21 | 0.21 | 84 | 1007.7 |
| 20260506214600 | 65 | 150 | 1.7 | 6.1 | 0.00 | 0.21 | 0.21 | 84 | 1007.7 |
| 20260506214101 | 65 | 171 | 1.7 | 6.1 | 0.00 | 0.21 | 0.21 | 85 | 1007.7 |
| 20260506213605 | 65 | 151 | 0.9 | 7.0 | 0.00 | 0.21 | 0.21 | 85 | 1007.7 |
| 20260506213145 | 65 | 114 | 1.7 | 7.0 | 0.00 | 0.21 | 0.21 | 85 | 1007.7 |
| 20260506212601 | 65 | 166 | 1.7 | 9.6 | 0.00 | 0.21 | 0.21 | 84 | 1007.7 |
| 20260506212101 | 65 | 182 | 2.6 | 9.6 | 0.00 | 0.21 | 0.21 | 85 | 1007.6 |
| 20260506211632 | 65 | 123 | 2.6 | 7.8 | 0.00 | 0.21 | 0.21 | 84 | 1007.6 |
| 20260506211101 | 65 | 149 | 1.7 | 8.7 | 0.00 | 0.21 | 0.21 | 86 | 1007.5 |
| 20260506210557 | 65 | 161 | 0.9 | 8.7 | 0.00 | 0.21 | 0.21 | 84 | 1007.4 |
| 20260506205556 | 65 | 128 | 1.7 | 6.1 | 0.00 | 0.21 | 0.21 | 84 | 1007.4 |
| 20260506205059 | 65 | 163 | 2.6 | 7.0 | 0.00 | 0.21 | 0.21 | 84 | 1007.4 |
| 20260506204559 | 66 | 252 | 2.6 | 7.0 | 0.00 | 0.21 | 0.21 | 83 | 1007.4 |
| 20260506204056 | 66 | 157 | 1.7 | 7.8 | 0.00 | 0.21 | 0.21 | 83 | 1007.2 |
| 20260506203600 | 66 | 169 | 0.9 | 7.8 | 0.00 | 0.21 | 0.21 | 84 | 1007.1 |